Weather History for Topeka Forbes, KS

Change the Weather History Date:

Tuesday, November 6, 2012

  Actual Average Record
Temperature  
Mean Temperature 49 °F -  
Max Temperature 61 °F 55 °F 83 °F (1980)
Min Temperature 37 °F 34 °F 13 °F (1959)
Degree Days  
Heating Degree Days 16    
Moisture  
Dew Point 33 °F    
Average Humidity 65    
Maximum Humidity 97    
Minimum Humidity 24    
Precipitation  
Precipitation 0.00 in - - ()
Sea Level Pressure  
Sea Level Pressure 30.06 in    
Wind  
Wind Speed 7 mph (WNW)    
Max Wind Speed 30 mph    
Max Gust Speed 40 mph    
Visibility 9 miles    
Events      
Averages and records for this station are not official NWS values.
T = Trace of Precipitation, MM = Missing Value Source: NWS Daily Summary

Daily Weather History Graph

Daily Weather History Graph

Search for Another Location

Airport:

Trip Planner

Search our weather history database for the weather conditions in past years. The results will help you decide how hot, cold, wet, or windy it might be!

Date:

Astronomy

Nov. 06, 2012 Rise Set
Actual Time 6:55 AM CST 5:16 PM CST
Civil Twilight 6:28 AM CST 5:44 PM CST
Nautical Twilight 5:56 AM CST 6:15 PM CST
Astronomical Twilight 5:24 AM CST 6:47 PM CST
Moon 11:55 PM CST (11/6) 12:49 PM CST (11/6)
Length of Visible Light 11h 16m
Length of Day
10h 20m
Waning Gibbous, 53% of the Moon is Illuminated
Nov 6
Waning Gibbous
Nov 6
Last Quarter
Nov 13
New
Nov 20
First Quarter
Nov 28
Full

Hourly Weather History & Observations

Time (CST) Temp. Windchill Dew Point Humidity Pressure Visibility Wind Dir Wind Speed Gust Speed Precip Events Conditions
12:16 AM 42.8 °F - 41.0 °F 93% 30.10 in 7.0 mi Calm Calm - N/A   Overcast
12:53 AM 43.0 °F - 41.0 °F 93% 30.10 in 7.0 mi Calm Calm - N/A   Overcast
1:09 AM 42.8 °F - 41.0 °F 93% 30.08 in 6.0 mi Calm Calm - N/A   Overcast
1:53 AM 43.0 °F 40.3 °F 39.9 °F 89% 30.08 in 8.0 mi SE 4.6 mph - N/A   Overcast
2:53 AM 42.1 °F 39.2 °F 39.9 °F 92% 30.06 in 7.0 mi SSE 4.6 mph - N/A   Overcast
3:53 AM 42.1 °F - 41.0 °F 96% 30.08 in 7.0 mi Calm Calm - N/A   Overcast
4:53 AM 42.1 °F 39.2 °F 39.0 °F 89% 30.07 in 10.0 mi SW 4.6 mph - N/A   Overcast
5:16 AM 39.2 °F 33.6 °F 37.4 °F 93% 30.04 in 10.0 mi SSW 8.1 mph - N/A   Mostly Cloudy
5:53 AM 37.9 °F 33.5 °F 37.0 °F 97% 30.05 in 9.0 mi SSW 5.8 mph - N/A   Clear
6:53 AM 39.9 °F 35.8 °F 37.9 °F 93% 30.04 in 6.0 mi SSW 5.8 mph - N/A   Clear
7:53 AM 41.0 °F 35.8 °F 37.9 °F 89% 30.04 in 7.0 mi SSW 8.1 mph - N/A   Scattered Clouds
8:53 AM 44.1 °F 38.1 °F 39.0 °F 82% 30.06 in 10.0 mi WSW 11.5 mph - N/A   Clear
9:53 AM 50.0 °F - 39.9 °F 68% 30.07 in 10.0 mi WNW 16.1 mph - N/A   Clear
10:53 AM 54.0 °F - 39.0 °F 57% 30.06 in 10.0 mi NW 17.3 mph 25.3 mph N/A   Clear
11:53 AM 57.9 °F - 34.0 °F 41% 30.05 in 10.0 mi NNW 17.3 mph 25.3 mph N/A   Clear
12:53 PM 60.1 °F - 30.0 °F 32% 30.03 in 10.0 mi NW 24.2 mph 31.1 mph N/A   Clear
1:53 PM 60.1 °F - 28.0 °F 30% 30.01 in 10.0 mi NW 16.1 mph 31.1 mph N/A   Clear
2:53 PM 61.0 °F - 24.1 °F 24% 30.01 in 10.0 mi NNW 25.3 mph 31.1 mph N/A   Clear
3:53 PM 59.0 °F - 23.0 °F 25% 30.03 in 10.0 mi NNW 29.9 mph 40.3 mph N/A   Clear
4:53 PM 55.9 °F - 24.1 °F 29% 30.04 in 10.0 mi NNW 20.7 mph 28.8 mph N/A   Clear
5:53 PM 52.0 °F - 25.0 °F 35% 30.06 in 10.0 mi NW 12.7 mph - N/A   Clear
6:53 PM 50.0 °F - 24.1 °F 36% 30.08 in 10.0 mi NW 11.5 mph - N/A   Clear
7:53 PM 46.0 °F 41.4 °F 25.0 °F 44% 30.09 in 10.0 mi NW 9.2 mph - N/A   Clear
8:53 PM 42.1 °F 36.6 °F 25.0 °F 51% 30.11 in 10.0 mi WNW 9.2 mph - N/A   Clear
9:53 PM 39.0 °F 32.8 °F 25.0 °F 57% 30.11 in 10.0 mi NW 9.2 mph - N/A   Clear
10:53 PM 39.0 °F 34.0 °F 26.1 °F 60% 30.10 in 10.0 mi NW 6.9 mph - N/A   Clear
11:53 PM 37.0 °F 31.0 °F 26.1 °F 65% 30.09 in 10.0 mi NW 8.1 mph - N/A   Clear